Simultaneous Nadir Overpasses (SNOs) Predictions

Prediction of SNOs near US between AQUA and NPP Satellite Orbit:

Table of predicted SNOs near US for the next 10.0 days since TLE Epoch: 8/4/2018
Index Date (AQUA) Time (AQUA) AQUA Lat,Lon Date (NPP) Time (NPP) NPP Lat,Lon Distance(km) Time Diff (sec)
1 08/04/2018 18:17:55 49.95, -80.33 08/04/2018 18:10:28 49.73, -81.68 99.77 447
2 08/04/2018 19:56:48 49.95,-105.05 08/04/2018 19:51:56 49.62,-107.01 145.00 292
3 08/04/2018 21:31:49 36.12,-125.00 08/04/2018 21:29:25 35.65,-127.32 215.55 144
4 08/07/2018 09:25:29 20.03,-114.42 08/07/2018 09:17:09 18.55,-115.01 176.21 500
5 08/10/2018 06:31:47 44.46, -65.91 08/10/2018 06:31:06 44.74, -67.72 146.64 41
6 08/10/2018 08:09:08 49.92, -88.53 08/10/2018 08:10:58 50.39, -90.76 167.02 110
7 08/10/2018 09:48:01 49.93,-113.25 08/10/2018 09:52:26 50.50,-116.08 211.47 265
8 08/12/2018 19:07:16 50.00, -92.70 08/12/2018 19:01:18 49.72, -94.38 124.21 358
9 08/12/2018 20:46:09 50.00,-117.42 08/12/2018 20:42:46 49.61,-119.71 169.43 203




NCC Satellite Simultaneous Nadir Overpasses (SNOs) Prediction Service
